Regional Weather Roundup
Issued by NWS Raleigh/Durham, NC

Home | Current Version | Previous Version | Text Only | Print | Product List | Glossary On
Versions: 1 2 3 4 5 6 7 8 9 10 11 12 13 14 15 16 17 18 19 20 21 22 23 24 25 26 27 28
000
ASUS42 KRAH 192210
RWRRAH
NORTH CAROLINA WEATHER ROUNDUP
NATIONAL WEATHER SERVICE RALEIGH NC
500 PM EST FRI JAN 19 2018

NOTE: "FAIR" INDICATES FEW OR NO CLOUDS BELOW 12,000 FEET WITH NO
SIGNIFICANT WEATHER AND/OR OBSTRUCTIONS TO VISIBILITY.

NCZ001-053-055-056-065-067-192300-
WESTERN NORTH CAROLINA

CITY           SKY/WX    TMP DP  RH WIND       PRES   REMARKS
ASHEVILLE      FAIR      49   8  19 NW7       30.16S
JEFFERSON      FAIR      41 -11  10 W16       30.10F
MORGANTON      FAIR      56   6  13 S3        30.16S
HICKORY        FAIR      51  18  27 S7        30.13S
RUTHERFORDTON  FAIR      55  11  17 S7        30.15S
MOUNT AIRY     FAIR      52  -6   9 CALM      30.13S
BOONE          FAIR      42  -6  13 W8        30.14R
$$

NCZ021-022-025-041-071-084-088-192300-
CENTRAL NORTH CAROLINA

CITY           SKY/WX    TMP DP  RH WIND       PRES   REMARKS
CHARLOTTE      FAIR      53  19  26 S5        30.16S
GREENSBORO     FAIR      46  14  27 SW8       30.12S
WINSTON-SALEM  FAIR      50   6  16 SW6       30.14S
RALEIGH-DURHAM FAIR      46  26  45 SW7       30.14S
FORT BRAGG     FAIR      55  23  29 SW3       30.14S
FAYETTEVILLE   FAIR      54  25  32 SW10      30.15S
BURLINGTON     FAIR      53   8  16 SW5       30.12S
LAURINBURG     FAIR      53  23  31 W8        30.17S
$$

NCZ011-015-027-028-043-044-047-080-103-192300-
NORTHEASTERN NORTH CAROLINA

CITY           SKY/WX    TMP DP  RH WIND       PRES   REMARKS
ROCKY MT-WILSO NOT AVBL
GREENVILLE     FAIR      54  19  26 SW8       30.14S
WASHINGTON     FAIR      54  18  24 SW8       30.13F
ELIZABETH CITY FAIR      48  33  56 SW8       30.11S
MANTEO         FAIR      44  29  56 SW8       30.12F
CAPE HATTERAS  FAIR      50  41  71 SW8       30.14F
$$

NCZ078-087-090-091-093-098-101-192300-
SOUTHEASTERN NORTH CAROLINA

CITY           SKY/WX    TMP DP  RH WIND       PRES   REMARKS
LUMBERTON      FAIR      54  27  35 SW6       30.16S
GOLDSBORO      FAIR      53  23  30 SW8       30.12F
KINSTON        FAIR      54  21  28 SW6       30.16R
KENANSVILLE    FAIR      54  25  32 SW3       30.15F
NEW BERN       FAIR      53  24  32 SW7       30.15S
CHERRY POINT   NOT AVBL
BEAUFORT       FAIR      48  39  71 SW7       30.16F
JACKSONVILLE   FAIR      57  22  25 SW5       30.15F
WILMINGTON     FAIR      55  29  36 SW9       30.17S
$$





USA.gov is the U.S. government's official web portal to all federal, state and local government web resources and services.